Home > Weather > Boise > Past weeks

Flag for U.S.A. Weather for the Past 2 Weeks in Boise, Idaho, U.S.A.

Now
34 °F

Clear.


Feels Like: 30 °F
Forecast: 31 / 49 °F
Wind: 5 mph from West

Location: Boise Air Terminal

Current Time: Feb 10, 2016 at 9:35:16 PM

Latest Report: Feb 10, 2016 at 8:53 PM


Visibility: 8 mi

Pressure: 30.48 "Hg (27.52 "Hg at 822m altitude)

Humidity: 88%

Dew point: 31 °F

Location of BoiseLocation

Historic Weather in Boise — Graph

°F

Boise Temperature Yesterday

Maximum temperature yesterday: 44 °F (at 3:53 PM)
Minimum temperature yesterday: 27 °F (at 7:53 AM)
Average temperature yesterday: 34 °F

High & Low Weather Summary for the Past Weeks

 TemperatureHumidityPressure
High47 °F (Feb 5, 3:53 PM)100% (Jan 28, 6:03 PM)30.77 "Hg (Jan 28, 6:03 PM)
Low21 °F (Feb 1, 3:53 AM)46% (Jan 28, 12:53 PM)29.80 "Hg (Jan 29, 1:53 PM)
Average34 °F80%30.34 "Hg
* Reported Jan 26 8:53 PM — Feb 10 7:53 PM, Boise, Weather by CustomWeather, © 2016

Note: Actual official high and low records may vary slightly from our data, if they occured in-between our weather recording intervals... More about our weather records

Advertising

Boise Weather History for the Previous 24 Hours

 ConditionsComfort  
Time TempWeatherWind HumidityBarometerVisibility
7:53 PM
Wed, Feb 10
36 °FPassing clouds.5 mph82%30.49 "Hg9 mi
6:53 PM36 °FSunny.No wind82%30.48 "Hg10 mi
5:53 PM37 °FSunny.6 mph82%30.47 "Hg9 mi
4:53 PM41 °FSunny.10 mph74%30.46 "Hg10 mi
3:53 PM42 °FSunny.No wind65%30.44 "Hg10 mi
2:53 PM41 °FSunny.No wind67%30.46 "Hg10 mi
11:04 AM30 °FIce fog.No wind93%30.47 "Hg4 mi
10:53 AM31 °FIce fog.3 mph92%30.54 "Hg4 mi
9:53 AM30 °FIce fog.No wind96%30.53 "Hg0 mi
9:00 AM28 °FIce fog.No wind100%30.45 "Hg0 mi
7:53 AM27 °FIce fog.5 mph100%30.50 "Hg0 mi
6:53 AM27 °FIce fog.3 mph92%30.47 "Hg6 mi
5:53 AM28 °FIce fog.3 mph100%30.47 "Hg0 mi
4:53 AM29 °FIce fog.3 mph96%30.49 "Hg0 mi
3:53 AM26 °FIce fog.No wind96%30.47 "Hg0 mi
2:53 AM29 °FIce fog.No wind100%30.47 "Hg0 mi
1:53 AM28 °FIce fog.No wind100%30.48 "Hg0 mi
12:53 AM29 °FIce fog.5 mph93%30.50 "Hg5 mi
11:53 PM
Tue, Feb 9
30 °FClear.No wind92%30.49 "Hg7 mi
10:53 PM30 °FClear.No wind89%30.50 "Hg8 mi
9:53 PM32 °FClear.No wind85%30.51 "Hg8 mi
Weather by CustomWeather, © 2016

See weather overviewHow to use our weather pages